CW2157 Weather Reports


time (UTC)temp
C
wind
direction
speed
KPH
gust
KPH
rain 1hr
cm
rain 24hr
cm
rain mn
cm
humidity
%
barometer
mb
20200531054705 21 7 3.2 24.1 0.00 0.00 0.00 62 1014.3
20200531054204 21 353 14.5 32.2 0.00 0.00 0.00 62 1014.2
20200531053704 21 17 8.0 16.1 0.00 0.00 0.00 61 1014.2
20200531053204 21 336 9.7 24.1 0.00 0.00 0.00 61 1014.2
20200531052704 21 348 9.7 24.1 0.00 0.00 0.00 62 1014.1
20200531052204 21 345 8.0 22.5 0.00 0.00 0.00 65 1014.1
20200531051705 21 350 3.2 16.1 0.00 0.00 0.00 65 1014.1
20200531051204 21 333 3.2 11.3 0.00 0.00 0.00 65 1014.0
20200531050704 21 338 4.8 14.5 0.00 0.00 0.00 64 1014.0
20200531050204 21 338 4.8 19.3 0.00 0.00 0.00 64 1013.9
20200531045704 21 0 4.8 14.5 0.00 0.00 0.00 64 1013.8
20200531045204 21 324 8.0 12.9 0.00 0.00 0.00 64 1013.8
20200531044704 21 332 4.8 14.5 0.00 0.00 0.00 65 1013.7
20200531044204 21 353 8.0 19.3 0.00 0.00 0.00 64 1013.7
20200531043704 21 339 8.0 16.1 0.00 0.00 0.00 65 1013.7
20200531043204 21 326 11.3 20.9 0.00 0.00 0.00 64 1013.7
20200531042704 21 341 9.7 19.3 0.00 0.00 0.00 65 1013.6
20200531042204 21 327 8.0 19.3 0.00 0.00 0.00 68 1013.6
20200531041704 21 344 6.4 14.5 0.00 0.00 0.00 70 1013.5
20200531041204 21 337 4.8 19.3 0.00 0.00 0.00 71 1013.6
20200531040704 20 321 4.8 19.3 0.00 0.00 0.00 73 1013.6
20200531040204 20 330 6.4 19.3 0.00 0.00 0.00 74 1013.6
20200531035705 20 330 4.8 20.9 0.00 0.00 0.00 76 1013.5
20200531035205 20 329 4.8 11.3 0.00 0.00 0.00 77 1013.5
20200531034705 19 346 3.2 9.7 0.00 0.00 0.00 78 1013.6
20200531034204 18 318 8.0 14.5 0.00 0.00 0.00 81 1013.6
20200531033704 18 322 3.2 9.7 0.00 0.00 0.00 84 1013.6
20200531033205 18 330 3.2 4.8 0.00 0.00 0.00 86 1013.6
20200531032704 18 316 1.6 4.8 0.00 0.00 0.00 87 1013.6
20200531032204 18 284 0.0 4.8 0.00 0.00 0.00 88 1013.6
20200531031704 18 284 0.0 1.6 0.00 0.00 0.00 88 1013.7
20200531031205 18 285 0.0 1.6 0.00 0.00 0.00 88 1013.7
20200531030704 18 321 1.6 4.8 0.00 0.00 0.00 87 1013.7
20200531030205 18 16 0.0 3.2 0.00 0.00 0.00 87 1013.7
20200531025704 18 16 0.0 4.8 0.00 0.00 0.00 88 1013.7
20200531025204 18 35 1.6 3.2 0.00 0.00 0.00 87 1013.6
20200531024704 18 37 1.6 4.8 0.00 0.00 0.00 87 1013.6
20200531024204 18 52 1.6 4.8 0.00 0.00 0.00 87 1013.6
20200531023704 19 63 0.0 0.0 0.00 0.00 0.00 86 1013.5
20200531023204 19 63 0.0 0.0 0.00 0.00 0.00 86 1013.4
20200531022704 19 63 0.0 0.0 0.00 0.00 0.00 85 1013.5
20200531022204 19 63 0.0 0.0 0.00 0.00 0.00 84 1013.4
20200531021704 19 63 0.0 0.0 0.00 0.00 0.00 84 1013.4
20200531021205 19 63 0.0 0.0 0.00 0.00 0.00 83 1013.3
20200531020705 19 63 0.0 0.0 0.00 0.00 0.00 82 1013.2
20200531020204 19 63 0.0 0.0 0.00 0.00 0.00 82 1013.3
20200531015704 19 63 0.0 0.0 0.00 0.00 0.00 81 1013.1
20200531015204 20 63 0.0 0.0 0.00 0.00 0.00 79 1013.1
20200531014704 20 63 0.0 0.0 0.00 0.00 0.00 77 1013.0
20200531014205 20 63 0.0 0.0 0.00 0.00 0.00 76 1013.0
20200531013705 20 63 0.0 0.0 0.00 0.00 0.00 77 1012.9
20200531013205 20 63 0.0 0.0 0.00 0.00 0.00 76 1012.9
20200531012705 20 63 0.0 0.0 0.00 0.00 0.00 76 1012.8
20200531012205 20 63 0.0 0.0 0.00 0.00 0.00 75 1012.7
20200531011705 21 63 0.0 0.0 0.00 0.00 0.00 72 1012.7
20200531011205 21 63 0.0 0.0 0.00 0.00 0.00 72 1012.7
20200531010705 21 63 0.0 0.0 0.00 0.00 0.00 72 1012.7
20200531010204 21 63 0.0 0.0 0.00 0.00 0.00 70 1012.6
20200531005704 21 63 0.0 0.0 0.00 0.00 0.00 70 1012.6
20200531005205 21 63 0.0 0.0 0.00 0.00 0.00 68 1012.6
20200531004705 22 63 0.0 0.0 0.00 0.00 0.00 68 1012.6
20200531004204 22 63 0.0 0.0 0.00 0.00 0.00 67 1012.4
20200531003704 22 63 0.0 0.0 0.00 0.00 0.00 66 1012.3
20200531003204 22 63 0.0 0.0 0.00 0.00 0.00 63 1012.3
20200531002704 23 63 0.0 0.0 0.00 0.00 0.00 61 1012.2
20200531002204 23 63 0.0 0.0 0.00 0.00 0.00 61 1012.2
20200531001705 23 63 0.0 0.0 0.00 0.00 0.00 61 1012.2
20200531001205 23 63 0.0 0.0 0.00 0.00 0.00 61 1012.2
20200531000705 23 63 0.0 1.6 0.00 0.00 0.00 60 1012.3
20200531000204 24 63 0.0 0.0 0.00 0.00 0.00 57 1012.1
20200530235705 24 63 0.0 0.0 0.00 0.00 0.00 55 1012.2
20200530235205 24 63 0.0 0.0 0.00 0.00 0.00 55 1012.1
20200530234705 25 63 0.0 1.6 0.00 0.00 0.00 53 1012.1
20200530234204 25 65 0.0 0.0 0.00 0.00 0.00 50 1012.0
20200530233704 25 64 0.0 0.0 0.00 0.00 0.00 50 1012.1
20200530233204 25 64 0.0 0.0 0.00 0.00 0.00 49 1012.0
20200530232705 25 64 0.0 0.0 0.00 0.00 0.00 47 1012.0
20200530232205 25 64 0.0 0.0 0.00 0.00 0.00 46 1011.9
20200530231704 25 64 0.0 1.6 0.00 0.00 0.00 45 1011.9
20200530231204 26 64 0.0 1.6 0.00 0.00 0.00 44 1011.9
20200530230705 26 61 1.6 3.2 0.00 0.00 0.00 44 1012.0
20200530230204 26 58 3.2 4.8 0.00 0.00 0.00 43 1011.9
20200530225704 26 58 1.6 4.8 0.00 0.00 0.00 42 1011.8
20200530225205 26 58 3.2 4.8 0.00 0.00 0.00 41 1011.7
20200530224705 26 58 1.6 4.8 0.00 0.00 0.00 39 1011.7
20200530224205 27 58 1.6 3.2 0.00 0.00 0.00 38 1011.7
20200530223704 27 58 0.0 3.2 0.00 0.00 0.00 37 1011.7
20200530223204 27 58 1.6 4.8 0.00 0.00 0.00 35 1011.6
20200530222704 27 60 1.6 4.8 0.00 0.00 0.00 38 1011.6
20200530222205 27 60 1.6 3.2 0.00 0.00 0.00 36 1011.6
20200530221704 28 60 1.6 4.8 0.00 0.00 0.00 37 1011.6
20200530221204 28 60 3.2 4.8 0.00 0.00 0.00 38 1011.6
20200530220705 28 55 4.8 8.0 0.00 0.00 0.00 36 1011.6
20200530220204 28 31 0.0 4.8 0.00 0.00 0.00 36 1011.6
20200530215704 28 35 4.8 8.0 0.00 0.00 0.00 37 1011.6
20200530215204 28 29 3.2 4.8 0.00 0.00 0.00 35 1011.7
20200530214705 28 62 4.8 9.7 0.00 0.00 0.00 36 1011.6
20200530214205 28 47 3.2 8.0 0.00 0.00 0.00 39 1011.6
20200530213705 28 37 3.2 9.7 0.00 0.00 0.00 38 1011.7
20200530213205 28 14 4.8 9.7 0.00 0.00 0.00 41 1011.7
20200530212704 28 44 8.0 11.3 0.00 0.00 0.00 42 1011.7
20200530212204 28 49 8.0 9.7 0.00 0.00 0.00 38 1011.8
20200530211704 28 31 4.8 9.7 0.00 0.00 0.00 39 1011.9
20200530211204 28 26 6.4 9.7 0.00 0.00 0.00 44 1011.9
20200530210704 28 79 4.8 8.0 0.00 0.00 0.00 40 1012.0
20200530210205 28 53 3.2 9.7 0.00 0.00 0.00 39 1012.2
20200530205704 28 56 8.0 9.7 0.00 0.00 0.00 44 1012.2
20200530205205 28 52 3.2 9.7 0.00 0.00 0.00 41 1012.2
20200530204705 27 35 3.2 4.8 0.00 0.00 0.00 38 1012.3
20200530204205 28 35 3.2 8.0 0.00 0.00 0.00 39 1012.3
20200530203704 28 30 1.6 9.7 0.00 0.00 0.00 42 1012.2
20200530203204 27 34 3.2 9.7 0.00 0.00 0.00 44 1012.3
20200530202704 27 31 3.2 9.7 0.00 0.00 0.00 41 1012.3
20200530202204 27 43 6.4 14.5 0.00 0.00 0.00 46 1012.2
20200530201704 27 49 6.4 11.3 0.00 0.00 0.00 43 1012.2
20200530201204 27 35 8.0 9.7 0.00 0.00 0.00 44 1012.2
20200530200704 27 52 4.8 8.0 0.00 0.00 0.00 43 1012.2
20200530200205 27 353 8.0 14.5 0.00 0.00 0.00 43 1012.2
20200530195704 27 19 8.0 14.5 0.00 0.00 0.00 45 1012.2
20200530195204 27 51 6.4 14.5 0.00 0.00 0.00 46 1012.2
20200530194705 27 56 9.7 16.1 0.00 0.00 0.00 45 1012.3
20200530194205 27 46 8.0 14.5 0.00 0.00 0.00 44 1012.2
20200530193705 27 55 9.7 16.1 0.00 0.00 0.00 47 1012.2
20200530193204 27 52 11.3 16.1 0.00 0.00 0.00 48 1012.3
20200530192704 27 53 9.7 16.1 0.00 0.00 0.00 49 1012.3
20200530192204 27 49 11.3 19.3 0.00 0.00 0.00 46 1012.4
20200530191705 27 48 11.3 16.1 0.00 0.00 0.00 45 1012.4
20200530191204 27 329 3.2 19.3 0.00 0.00 0.00 44 1012.4
20200530190705 27 12 9.7 14.5 0.00 0.00 0.00 50 1012.4
20200530190204 27 46 9.7 20.9 0.00 0.00 0.00 47 1012.5
20200530185704 27 49 11.3 19.3 0.00 0.00 0.00 50 1012.5
20200530185205 27 53 4.8 20.9 0.00 0.00 0.00 47 1012.6
20200530184713 27 42 4.8 16.1 0.00 0.00 0.00 48 1012.5
20200530184205 27 45 6.4 19.3 0.00 0.00 0.00 48 1012.7
20200530183704 27 24 8.0 14.5 0.00 0.00 0.00 48 1012.6
20200530183204 27 22 8.0 16.1 0.00 0.00 0.00 49 1012.7
20200530182704 27 30 8.0 14.5 0.00 0.00 0.00 49 1012.6
20200530182204 26 36 8.0 14.5 0.00 0.00 0.00 51 1012.7
20200530181704 26 33 9.7 16.1 0.00 0.00 0.00 52 1012.7
20200530181204 26 3 9.7 14.5 0.00 0.00 0.00 53 1012.9
20200530180705 26 54 8.0 14.5 0.00 0.00 0.00 50 1013.0
20200530180204 26 49 4.8 12.9 0.00 0.00 0.00 52 1013.0
20200530175704 26 35 11.3 20.9 0.00 0.00 0.00 51 1012.9
20200530175205 26 46 8.0 14.5 0.00 0.00 0.00 49 1013.0
20200530174704 26 356 8.0 14.5 0.00 0.00 0.00 49 1013.0
20200530174204 26 53 4.8 12.9 0.00 0.00 0.00 51 1013.1
20200530173704 26 44 8.0 14.5 0.00 0.00 0.00 50 1013.1
20200530173204 26 18 9.7 19.3 0.00 0.00 0.00 55 1013.1
20200530172705 26 56 9.7 16.1 0.00 0.00 0.00 52 1013.1
20200530172204 26 41 9.7 25.7 0.00 0.00 0.00 54 1013.1
20200530171704 26 48 14.5 22.5 0.00 0.00 0.00 58 1013.1
20200530171204 26 39 8.0 19.3 0.00 0.00 0.00 58 1013.1
20200530170704 26 29 8.0 16.1 0.00 0.00 0.00 58 1013.2
20200530170205 26 354 9.7 19.3 0.00 0.00 0.00 60 1013.2
20200530165704 25 22 9.7 16.1 0.00 0.00 0.00 61 1013.2
20200530165204 25 14 8.0 19.3 0.00 0.00 0.00 59 1013.2
20200530164704 25 16 8.0 19.3 0.00 0.00 0.00 61 1013.1
20200530164204 25 353 9.7 19.3 0.00 0.00 0.00 62 1013.1
20200530163705 25 34 11.3 20.9 0.00 0.00 0.00 61 1013.2
20200530163204 25 14 9.7 19.3 0.00 0.00 0.00 62 1013.0
20200530162704 25 2 9.7 19.3 0.00 0.00 0.00 61 1013.1
20200530162205 25 45 12.9 24.1 0.00 0.00 0.00 66 1013.0
20200530161704 25 24 8.0 19.3 0.00 0.00 0.00 66 1013.0
20200530161204 25 28 9.7 16.1 0.00 0.00 0.00 66 1013.1
20200530160704 25 41 11.3 20.9 0.00 0.00 0.00 70 1013.0
20200530160204 25 42 16.1 24.1 0.00 0.00 0.00 69 1013.1
20200530155704 25 29 12.9 19.3 0.00 0.00 0.00 72 1013.2
20200530155205 25 25 8.0 14.5 0.00 0.00 0.00 69 1013.2
20200530154705 25 324 8.0 12.9 0.00 0.00 0.00 70 1013.3
20200530154204 25 332 6.4 12.9 0.00 0.00 0.00 68 1013.3
20200530153704 25 21 3.2 14.5 0.00 0.00 0.00 68 1013.3
20200530153205 25 343 8.0 14.5 0.00 0.00 0.00 67 1013.4
20200530152704 25 324 4.8 12.9 0.00 0.00 0.00 67 1013.4
20200530152205 25 358 3.2 14.5 0.00 0.00 0.00 68 1013.3
20200530151704 25 358 6.4 12.9 0.00 0.00 0.00 67 1013.4
20200530151204 25 305 3.2 12.9 0.00 0.00 0.00 67 1013.3
20200530150704 25 304 8.0 19.3 0.00 0.00 0.00 68 1013.4
20200530150204 25 332 4.8 12.9 0.00 0.00 0.00 67 1013.4
20200530145704 25 258 4.8 16.1 0.00 0.00 0.00 70 1013.5
20200530145204 25 8 6.4 16.1 0.00 0.00 0.00 71 1013.5
20200530144705 25 320 8.0 16.1 0.00 0.00 0.00 70 1013.5
20200530144204 25 292 6.4 14.5 0.00 0.00 0.00 72 1013.5
20200530143704 24 308 4.8 19.3 0.00 0.00 0.00 71 1013.5
20200530143204 24 266 1.6 12.9 0.00 0.00 0.00 73 1013.5
20200530142704 24 328 9.7 19.3 0.00 0.00 0.00 73 1013.5
20200530142204 24 337 6.4 16.1 0.00 0.00 0.00 71 1013.5
20200530141704 24 323 11.3 19.3 0.00 0.00 0.00 71 1013.6
20200530141204 24 1 9.7 14.5 0.00 0.00 0.00 75 1013.5
20200530140705 24 317 8.0 12.9 0.00 0.00 0.00 75 1013.6
20200530140204 23 296 8.0 19.3 0.00 0.00 0.00 77 1013.7
20200530135704 23 347 4.8 16.1 0.00 0.00 0.00 76 1013.7
20200530135205 23 301 8.0 19.3 0.00 0.00 0.00 77 1013.7
20200530134704 23 312 4.8 19.3 0.00 0.00 0.00 77 1013.6
20200530134204 23 274 6.4 11.3 0.00 0.00 0.00 78 1013.6
20200530133704 23 329 9.7 20.9 0.00 0.00 0.00 76 1013.6
20200530133204 23 281 8.0 16.1 0.00 0.00 0.00 78 1013.6
20200530132705 23 311 4.8 12.9 0.00 0.00 0.00 81 1013.7
20200530132204 23 317 8.0 19.3 0.00 0.00 0.00 78 1013.7
20200530131704 23 337 9.7 14.5 0.00 0.00 0.00 81 1013.7
20200530131205 22 342 9.7 14.5 0.00 0.00 0.00 81 1013.7
20200530130705 22 312 3.2 19.3 0.00 0.00 0.00 85 1013.8
20200530130204 22 328 3.2 9.7 0.00 0.00 0.00 84 1013.7
20200530125704 22 299 1.6 8.0 0.00 0.00 0.00 84 1013.7
20200530125204 22 344 3.2 8.0 0.00 0.00 0.00 84 1013.8
20200530124704 22 330 1.6 4.8 0.00 0.00 0.00 83 1013.8
20200530124205 22 311 1.6 4.8 0.00 0.00 0.00 83 1013.8
20200530123704 22 317 1.6 4.8 0.00 0.00 0.00 85 1013.7
20200530123204 22 312 3.2 9.7 0.00 0.00 0.00 84 1013.7
20200530122704 22 169 1.6 8.0 0.00 0.00 0.00 86 1013.7
20200530122204 22 224 1.6 8.0 0.00 0.00 0.00 86 1013.6
20200530121704 22 317 1.6 9.7 0.00 0.00 0.00 87 1013.6
20200530121205 22 288 4.8 14.5 0.00 0.00 0.00 87 1013.5
20200530120705 21 310 3.2 12.9 0.00 0.00 0.00 87 1013.5
20200530120205 21 295 1.6 9.7 0.00 0.03 0.00 89 1013.4
20200530115704 21 301 3.2 11.3 0.00 0.03 0.00 90 1013.3
20200530115204 21 312 3.2 9.7 0.00 0.03 0.00 91 1013.3
20200530114704 21 296 1.6 4.8 0.00 0.03 0.00 92 1013.3
20200530114204 20 300 1.6 4.8 0.00 0.03 0.00 93 1013.1
20200530113704 20 270 1.6 4.8 0.00 0.03 0.00 93 1013.2
20200530113204 20 252 1.6 4.8 0.00 0.03 0.00 94 1013.2
20200530112705 20 248 1.6 4.8 0.00 0.03 0.00 94 1013.1
20200530112205 20 257 0.0 4.8 0.00 0.03 0.00 95 1013.1
20200530111704 20 237 1.6 4.8 0.00 0.03 0.00 95 1013.0
20200530111204 20 247 1.6 4.8 0.00 0.03 0.00 95 1013.1
20200530110704 20 247 0.0 4.8 0.00 0.03 0.00 95 1013.1
20200530110204 20 252 1.6 4.8 0.00 0.03 0.00 95 1013.0
20200530105704 19 239 1.6 3.2 0.00 0.03 0.00 95 1013.1
20200530105205 19 239 0.0 4.8 0.00 0.03 0.00 95 1013.0
20200530104704 19 239 3.2 4.8 0.00 0.03 0.00 95 1013.0
20200530104204 19 240 0.0 0.0 0.00 0.03 0.00 95 1013.0
20200530103704 19 240 0.0 0.0 0.00 0.03 0.00 95 1013.0
20200530103205 20 235 0.0 1.6 0.00 0.03 0.00 95 1013.1
20200530102704 20 225 0.0 1.6 0.00 0.03 0.00 95 1013.1
20200530102204 20 225 0.0 0.0 0.00 0.03 0.00 95 1013.0
20200530101704 20 225 0.0 0.0 0.00 0.03 0.00 95 1013.0
20200530101204 20 225 0.0 0.0 0.00 0.03 0.00 95 1012.9
20200530100704 20 225 0.0 0.0 0.00 0.03 0.00 95 1012.9
20200530100205 20 225 0.0 0.0 0.00 0.03 0.00 95 1012.8
20200530095704 20 220 0.0 0.0 0.00 0.03 0.00 95 1012.8
20200530095204 20 219 0.0 0.0 0.00 0.03 0.00 95 1012.8
20200530094704 20 218 0.0 0.0 0.00 0.03 0.00 95 1012.6
20200530094204 20 218 0.0 0.0 0.00 0.03 0.00 95 1012.5
20200530093704 20 218 0.0 0.0 0.00 0.03 0.00 95 1012.4
20200530093204 20 218 0.0 0.0 0.00 0.03 0.00 95 1012.4
20200530092705 20 218 0.0 0.0 0.00 0.03 0.00 96 1012.4
20200530092204 20 217 0.0 0.0 0.00 0.03 0.00 96 1012.4
20200530091205 20 217 0.0 0.0 0.00 0.03 0.00 96 1012.3
20200530090704 20 217 0.0 0.0 0.00 0.03 0.00 95 1012.3
20200530090204 20 217 0.0 0.0 0.00 0.03 0.00 95 1012.2
20200530085704 20 217 0.0 0.0 0.00 0.03 0.00 95 1012.1
20200530085204 20 217 0.0 0.0 0.00 0.03 0.00 95 1012.1
20200530084704 20 217 0.0 0.0 0.00 0.03 0.00 95 1012.0
20200530084205 20 217 0.0 0.0 0.00 0.03 0.00 95 1012.0
20200530083704 20 216 0.0 0.0 0.00 0.03 0.00 95 1012.1
20200530083205 20 216 0.0 0.0 0.00 0.03 0.00 95 1012.1
20200530082704 20 216 0.0 0.0 0.00 0.03 0.00 95 1012.1
20200530082204 20 216 0.0 0.0 0.00 0.03 0.00 94 1012.0
20200530081704 20 216 0.0 0.0 0.00 0.03 0.00 94 1011.8
20200530081204 20 216 0.0 0.0 0.00 0.03 0.00 94 1011.8
20200530080704 20 216 0.0 0.0 0.00 0.03 0.00 94 1011.8
20200530080204 20 216 0.0 0.0 0.00 0.03 0.00 94 1011.8
20200530075704 20 216 0.0 0.0 0.00 0.03 0.00 94 1011.8
20200530075204 20 216 0.0 1.6 0.00 0.03 0.00 94 1011.8
20200530074704 20 216 0.0 0.0 0.00 0.03 0.00 94 1011.9
20200530074206 20 216 0.0 0.0 0.00 0.03 0.00 94 1011.8
20200530073705 20 216 0.0 1.6 0.00 0.03 0.00 94 1011.8
20200530073205 20 216 0.0 0.0 0.00 0.03 0.00 93 1011.8
20200530072704 20 216 0.0 1.6 0.00 0.03 0.00 93 1011.8
20200530072204 20 216 0.0 0.0 0.00 0.03 0.00 93 1011.8
20200530071704 20 216 1.6 4.8 0.00 0.03 0.00 93 1011.9
20200530071204 20 216 1.6 8.0 0.00 0.03 0.00 92 1011.9
20200530070704 20 208 6.4 8.0 0.00 0.03 0.00 92 1012.0
20200530070205 21 222 3.2 9.7 0.00 0.03 0.00 92 1012.0
20200530065705 21 241 0.0 0.0 0.00 0.03 0.00 92 1012.0
20200530065204 21 241 0.0 3.2 0.00 0.03 0.00 92 1012.0
20200530064704 21 241 0.0 1.6 0.00 0.03 0.00 92 1012.0
20200530064204 21 241 1.6 4.8 0.00 0.03 0.00 92 1012.2
20200530063704 21 224 0.0 3.2 0.00 0.03 0.00 92 1012.1
20200530063204 21 214 0.0 4.8 0.00 0.03 0.00 92 1012.2
20200530062704 21 239 1.6 8.0 0.00 0.03 0.00 93 1012.1
20200530062205 21 241 1.6 3.2 0.00 0.03 0.00 93 1012.1
20200530061704 21 241 1.6 8.0 0.00 0.03 0.00 94 1012.1
20200530061204 22 235 6.4 9.7 0.00 0.03 0.00 94 1012.1
20200530060704 22 231 4.8 11.3 0.00 0.03 0.00 95 1012.1
20200530060204 22 229 6.4 11.3 0.00 0.03 0.00 95 1012.1
20200530055704 22 237 8.0 12.9 0.00 0.03 0.00 95 1012.1
20200530055204 22 201 8.0 14.5 0.00 0.03 0.00 95 1011.9